[[{"header":{"parameterUnit":"m.s-1","parameterCategory":1,"la1":30.2991,"la2":30.254,"lo1":-89.0895,"lo2":-89.0444,"dy":0.0017,"dx":0.0017,"nx":28,"ny":28,"refTime":"2025-12-01T09:00:00:Z","depth":0,"parameterNumber":2,"parameterNumberName":"U-component_of_WINDS"},"data":[0,0,0,0,0,0,0,0,0,0,0,0,0,0,0,0,0,0,0,0,0,0,0,0,0,0,0,0,0,0,0,0,0,0,0,0,0,0,0,0,0,0,0,0,0,0,0,0,0,0,0,0,0,0,0,0,0,0,1.7882,1.7882,0,1.7874,1.7874,1.7874,1.7845,1.7844,1.7844,1.7843,1.7835,1.7835,1.7836,0,0,0,0,0,0,0,0,0,0,0,0,0,1.7874,1.7874,1.7882,1.7882,1.7882,1.7874,1.7874,1.7874,1.7845,1.7844,1.7844,1.7843,1.7835,1.7835,1.7836,0,0,0,0,0,0,0,0,0,0,0,0,0,1.7873,1.7874,1.7882,1.7867,1.7865,1.7874,1.7874,1.7874,1.7845,1.7844,1.7843,1.7842,1.7835,1.7835,1.7836,1.786,0,0,1.7838,1.7838,0,0,0,0,0,0,0,0,1.7873,1.7873,1.7869,1.7868,1.7866,1.786,1.7868,1.7869,1.7846,1.7853,1.7843,1.7842,1.7844,1.7844,1.7844,1.7859,1.7859,1.7838,1.7838,1.7838,1.7839,0,0,0,0,0,0,0,1.7873,1.7873,1.7879,1.7869,1.7867,1.7861,1.7859,1.7868,1.7854,1.7852,1.785,1.7849,1.7843,1.7844,1.7844,1.7859,1.7838,1.7838,1.7839,1.7839,1.7893,1.7894,0,0,0,0,0,0,1.7875,1.7874,1.7879,1.7879,1.7867,1.7861,1.786,1.7863,1.7854,1.7852,1.785,1.7848,1.7843,1.7843,1.7844,1.7871,1.7838,1.7839,1.7839,1.7892,1.7893,1.7895,0,0,0,0,0,0,1.7875,1.7876,1.788,1.7876,1.7876,1.7863,1.7866,1.7863,1.7864,1.7853,1.785,1.7854,1.7843,1.7843,1.7856,1.787,1.7839,1.784,1.7891,1.7893,1.7894,1.7925,0,0,0,0,0,0,1.7875,1.7876,1.7884,1.7876,1.7876,1.7892,1.7867,1.7864,1.7865,1.7862,1.7855,1.7853,1.7842,1.7855,1.7857,1.787,1.784,1.7889,1.7892,1.7893,1.7923,1.7928,1.7932,0,0,0,0,0,1.7875,1.7894,1.7885,1.7886,1.7886,1.7893,1.7893,1.7879,1.7866,1.7875,1.7868,1.7853,1.7869,1.7857,1.7858,1.7872,1.7888,1.7891,1.7893,1.7921,1.7927,1.7932,0,0,0,0,0,0,1.7904,1.7892,1.7883,1.7899,1.7897,1.7888,1.7898,1.7886,1.7888,1.7885,1.7869,1.7867,1.7883,1.7879,1.7866,1.7895,1.7876,1.7879,1.7897,1.7902,1.7907,1.7907,1.7841,0,0,0,0,0,1.7912,1.7918,1.7908,1.7924,1.7923,1.7911,1.7913,1.7903,1.7901,1.79,1.7893,1.7892,1.7896,1.7899,1.7903,1.7923,1.7921,1.7933,1.7938,1.7942,1.7944,1.7955,1.796,1.7903,1.7903,1.7902,0,0,1.7929,1.7924,1.7928,1.7929,1.7926,1.7933,1.791,1.7918,1.7923,1.7901,1.7913,1.7908,1.7905,1.7922,1.7929,1.792,1.796,1.7945,1.7948,1.7948,1.7958,1.7964,1.7968,1.7904,1.7904,1.7904,0,0,1.7964,1.796,1.7973,1.7971,1.7968,1.796,1.7963,1.7956,1.7952,1.7964,1.7947,1.7954,1.7961,1.796,1.796,1.7996,1.7983,1.7998,1.8021,1.8032,1.8037,1.8041,1.8053,1.8058,1.8001,1.8001,1.8001,0,1.7985,1.7995,1.7981,1.7991,1.7992,1.7972,1.7985,1.7984,1.7982,1.7983,1.7973,1.7983,1.7979,1.7996,1.8005,1.8006,1.8009,1.7998,1.8037,1.8041,1.8044,1.8056,1.8061,1.8003,1.8002,1.8002,1.8002,0,1.8022,1.8029,1.804,1.8038,1.8041,1.8052,1.8041,1.8045,1.8036,1.8029,1.8042,1.8037,1.804,1.8043,1.8034,1.8059,1.8053,1.804,1.802,1.8052,1.8063,1.8067,1.8005,1.8005,1.8004,1.8004,0,0,1.8073,1.8065,1.8069,1.8068,1.8064,1.8069,1.808,1.8083,1.8087,1.8087,1.8095,1.8103,1.8092,1.8092,1.8083,1.8093,1.8122,1.8078,1.8078,1.8086,1.8149,1.8158,1.8164,1.8113,1.8114,1.8115,1.8149,0,1.8105,1.8123,1.8112,1.8131,1.8138,1.8121,1.813,1.8129,1.8123,1.8129,1.8123,1.8129,1.8113,1.8113,1.8122,1.8116,1.8134,1.8114,1.8121,1.8122,1.8122,1.8169,1.8179,1.8211,1.8153,1.8154,1.8155,0,1.8145,1.8147,1.8167,1.8162,1.8165,1.8173,1.8175,1.8181,1.8179,1.8175,1.8176,1.8165,1.8176,1.8157,1.8172,1.8159,1.8162,1.816,1.816,1.816,1.8139,1.8169,1.8221,1.8226,1.8161,1.8161,1.816,0,1.818,1.8187,1.8201,1.8201,1.8195,1.8202,1.82,1.8198,1.82,1.8203,1.8204,1.8208,1.8209,1.8213,1.8203,1.819,1.8219,1.82,1.8216,1.8216,1.8221,1.8221,1.8274,1.8225,1.8225,1.8225,1.8224,0,1.8217,1.823,1.8216,1.8224,1.8239,1.8226,1.8241,1.8237,1.8236,1.8243,1.8229,1.8236,1.8223,1.8229,1.8222,1.8236,1.8237,1.8233,1.8231,1.8234,1.8234,1.8235,1.8232,1.8226,1.8226,1.8225,1.8225,0,1.8257,1.8249,1.8262,1.8256,1.8255,1.8266,1.8261,1.8269,1.8263,1.8273,1.8275,1.8266,1.8272,1.8263,1.8269,1.8264,1.8283,1.8278,1.8283,1.8281,1.8297,1.8296,1.8351,1.8358,1.8306,1.8306,1.8307,0,1.8281,1.829,1.8286,1.829,1.8289,1.8296,1.8299,1.8288,1.8291,1.8291,1.8299,1.8304,1.8308,1.832,1.8314,1.8319,1.8313,1.8332,1.8313,1.8317,1.8313,1.8312,1.8313,1.8336,1.8336,1.8337,1.8337,0,1.8324,1.8319,1.8324,1.8327,1.8331,1.8334,1.8335,1.8339,1.8327,1.8332,1.8339,1.8342,1.8349,1.8354,1.8358,1.8356,1.8345,1.8344,1.8347,1.835,1.8353,1.8351,1.8293,1.8342,1.8341,1.8341,1.8341,1.8341,1.8356,1.8364,1.8362,1.8368,1.8368,1.837,1.8377,1.8373,1.8378,1.8382,1.8376,1.8385,1.8384,1.8387,1.8387,1.8394,1.8386,1.8392,1.8393,1.8394,1.8396,1.8353,1.8395,1.8395,1.8395,1.8395,1.8394,0,1.8398,1.8396,1.8402,1.8404,1.8409,1.8399,1.84,1.8405,1.8413,1.8413,1.8417,1.8426,1.8432,1.8427,1.8432,1.8439,1.8434,1.8441,1.8439,1.8439,1.8404,1.84,1.8445,1.8445,1.8445,1.8445,1.8444,1.8444,1.842,1.8433,1.8429,1.8442,1.8441,1.8449,1.8451,1.8452,1.8453,1.8463,1.8468,1.8465,1.8464,1.8469,1.8474,1.8473,1.8475,1.8484,1.848,1.8447,1.8442,1.8437,1.8433,1.8484,1.8484,1.8515,1.8515,1.8516]},{"header":{"parameterUnit":"m.s-1","parameterCategory":1,"la1":30.2991,"la2":30.254,"lo1":-89.0895,"lo2":-89.0444,"dy":0.0017,"dx":0.0017,"nx":28,"ny":28,"refTime":"2025-12-01T09:00:00:Z","depth":0,"parameterNumber":3,"parameterNumberName":"V-component_of_WINDS"},"data":[0,0,0,0,0,0,0,0,0,0,0,0,0,0,0,0,0,0,0,0,0,0,0,0,0,0,0,0,0,0,0,0,0,0,0,0,0,0,0,0,0,0,0,0,0,0,0,0,0,0,0,0,0,0,0,0,0,0,-7.469,-7.4692,0,-7.487,-7.4873,-7.4875,-7.4826,-7.4823,-7.4819,-7.4816,-7.4994,-7.5002,-7.501,0,0,0,0,0,0,0,0,0,0,0,0,0,-7.4296,-7.4304,-7.4689,-7.4692,-7.4694,-7.487,-7.4873,-7.4875,-7.4827,-7.4823,-7.4818,-7.4814,-7.4991,-7.5001,-7.5011,0,0,0,0,0,0,0,0,0,0,0,0,0,-7.4471,-7.4306,-7.4689,-7.4691,-7.4694,-7.487,-7.4873,-7.4876,-7.4828,-7.4823,-7.4817,-7.4812,-7.4988,-7.5,-7.5012,-7.5195,0,0,-7.5049,-7.5054,0,0,0,0,0,0,0,0,-7.4461,-7.4485,-7.4689,-7.4692,-7.4694,-7.4821,-7.4799,-7.4982,-7.4829,-7.4777,-7.4816,-7.4809,-7.494,-7.4956,-7.5001,-7.5203,-7.5211,-7.505,-7.5058,-7.5063,-7.5066,0,0,0,0,0,0,0,-7.4449,-7.4477,-7.4761,-7.4692,-7.4695,-7.4681,-7.47,-7.4834,-7.4886,-7.4781,-7.4778,-7.48,-7.4941,-7.499,-7.5005,-7.5213,-7.505,-7.5061,-7.5068,-7.5073,-7.5573,-7.5579,0,0,0,0,0,0,-7.4436,-7.4468,-7.4755,-7.4766,-7.4562,-7.4693,-7.4714,-7.4785,-7.4885,-7.4895,-7.4805,-7.4797,-7.4972,-7.4991,-7.5011,-7.5232,-7.5063,-7.5074,-7.5081,-7.5567,-7.5574,-7.5581,0,0,0,0,0,0,-7.4427,-7.4462,-7.4748,-7.4616,-7.4652,-7.4705,-7.4786,-7.4792,-7.4841,-7.4903,-7.4911,-7.4846,-7.4968,-7.4994,-7.515,-7.5237,-7.5079,-7.5091,-7.556,-7.5569,-7.5578,-7.5674,0,0,0,0,0,0,-7.4416,-7.4459,-7.4531,-7.4618,-7.4659,-7.4886,-7.4791,-7.4799,-7.4863,-7.4855,-7.4944,-7.4953,-7.4966,-7.5132,-7.5162,-7.5251,-7.51,-7.5552,-7.5564,-7.5575,-7.5663,-7.5685,-7.5704,0,0,0,0,0,-7.4403,-7.4549,-7.4535,-7.457,-7.475,-7.4891,-7.4914,-7.4928,-7.487,-7.4942,-7.4981,-7.495,-7.5223,-7.5148,-7.5182,-7.5276,-7.5547,-7.5561,-7.5574,-7.5654,-7.5681,-7.5703,0,0,0,0,0,0,-7.4468,-7.4561,-7.4546,-7.4725,-7.4801,-7.4882,-7.4973,-7.4956,-7.5047,-7.5036,-7.5047,-7.5067,-7.5227,-7.5266,-7.5182,-7.5457,-7.5376,-7.5397,-7.5426,-7.5452,-7.5472,-7.5458,-7.511,0,0,0,0,0,-7.4504,-7.4613,-7.4687,-7.4838,-7.4877,-7.4919,-7.4981,-7.4985,-7.5063,-7.5094,-7.5145,-7.5219,-7.5322,-7.5389,-7.5486,-7.5669,-7.5687,-7.575,-7.577,-7.5786,-7.5804,-7.5903,-7.5931,-7.5625,-7.5625,-7.5625,0,0,-7.4578,-7.4642,-7.471,-7.4853,-7.4912,-7.5023,-7.4946,-7.5066,-7.5148,-7.5111,-7.5262,-7.5302,-7.5386,-7.5556,-7.5633,-7.5594,-7.5893,-7.5804,-7.5816,-7.5825,-7.5919,-7.5948,-7.5974,-7.5635,-7.5633,-7.5631,0,0,-7.4769,-7.483,-7.4962,-7.5024,-7.5115,-7.5142,-7.5174,-7.5259,-7.5285,-7.5437,-7.5412,-7.5507,-7.5684,-7.5745,-7.5799,-7.6014,-7.5989,-7.6045,-7.6151,-7.6248,-7.6272,-7.6293,-7.6369,-7.6396,-7.6063,-7.6063,-7.6063,0,-7.4849,-7.5018,-7.5032,-7.5156,-7.5219,-7.5193,-7.5327,-7.5384,-7.5502,-7.5545,-7.5501,-7.5722,-7.5776,-7.596,-7.6013,-7.6058,-7.6093,-7.6035,-7.6267,-7.6289,-7.6309,-7.6382,-7.6411,-7.6069,-7.6069,-7.6068,-7.6067,0,-7.5111,-7.5228,-7.5323,-7.5441,-7.5514,-7.5642,-7.5674,-7.5747,-7.5745,-7.5776,-7.593,-7.5995,-7.6105,-7.6149,-7.6148,-7.6333,-7.6306,-7.6264,-7.6183,-7.6344,-7.6413,-7.6441,-7.6078,-7.6076,-7.6074,-7.6073,0,0,-7.5348,-7.5473,-7.5507,-7.556,-7.5659,-7.5749,-7.5874,-7.5985,-7.6047,-7.6128,-7.6233,-7.6383,-7.6346,-7.6407,-7.6412,-7.6497,-7.6663,-7.6445,-7.6447,-7.6482,-7.6869,-7.69,-7.6932,-7.6647,-7.6652,-7.6656,-7.6862,0,-7.5548,-7.5772,-7.5789,-7.599,-7.6098,-7.6075,-7.6185,-7.6256,-7.6289,-7.6382,-7.6417,-7.6523,-7.6466,-7.6503,-7.6586,-7.6625,-7.674,-7.661,-7.6742,-7.6747,-7.6722,-7.6968,-7.7,-7.7191,-7.6889,-7.6894,-7.6897,0,-7.5811,-7.5904,-7.6117,-7.6201,-7.6246,-7.6345,-7.6447,-7.6538,-7.6618,-7.6635,-7.6705,-7.6698,-7.6825,-7.674,-7.6914,-7.6825,-7.688,-7.6907,-7.6915,-7.6927,-7.6831,-7.6986,-7.7253,-7.7281,-7.6939,-7.6936,-7.6933,0,-7.5962,-7.614,-7.629,-7.6336,-7.6438,-7.6508,-7.6553,-7.6628,-7.6693,-7.6782,-7.6824,-7.6925,-7.6981,-7.7059,-7.7079,-7.7015,-7.7253,-7.7169,-7.7269,-7.7269,-7.7319,-7.7316,-7.7598,-7.7356,-7.7355,-7.7355,-7.7354,0,-7.6184,-7.6314,-7.6359,-7.6452,-7.6597,-7.6615,-7.6757,-7.6798,-7.6865,-7.6963,-7.6949,-7.7041,-7.7063,-7.7158,-7.7175,-7.7316,-7.7341,-7.7357,-7.736,-7.7358,-7.7356,-7.7394,-7.7381,-7.7363,-7.7361,-7.7359,-7.7358,0,-7.6377,-7.6412,-7.6575,-7.6659,-7.6683,-7.6786,-7.6857,-7.6945,-7.6976,-7.71,-7.713,-7.7178,-7.729,-7.7318,-7.7451,-7.7461,-7.7628,-7.7619,-7.7602,-7.7602,-7.77,-7.769,-7.8016,-7.8059,-7.7789,-7.7791,-7.7794,0,-7.6515,-7.6616,-7.6711,-7.6778,-7.6827,-7.6933,-7.7,-7.7021,-7.7091,-7.719,-7.7265,-7.7376,-7.7466,-7.7645,-7.769,-7.7791,-7.7783,-7.7891,-7.7798,-7.7794,-7.7784,-7.7778,-7.7788,-7.7908,-7.7911,-7.7913,-7.7915,0,-7.6757,-7.677,-7.6869,-7.6975,-7.7056,-7.7139,-7.7218,-7.7272,-7.7304,-7.7383,-7.7499,-7.7569,-7.7705,-7.7815,-7.7917,-7.7961,-7.7943,-7.7944,-7.7972,-7.7971,-7.7958,-7.7966,-7.765,-7.7936,-7.7934,-7.7932,-7.7931,-7.793,-7.6927,-7.7015,-7.7097,-7.7207,-7.727,-7.7344,-7.7431,-7.7474,-7.7571,-7.7686,-7.7692,-7.7817,-7.7894,-7.803,-7.808,-7.8177,-7.8144,-7.8185,-7.8195,-7.8205,-7.8214,-7.7943,-7.8195,-7.8195,-7.8194,-7.8194,-7.8193,0,-7.7168,-7.722,-7.7321,-7.7434,-7.752,-7.7499,-7.7585,-7.7658,-7.777,-7.7844,-7.7933,-7.8066,-7.8172,-7.8226,-7.8331,-7.8398,-7.8393,-7.8425,-7.842,-7.843,-7.8237,-7.8202,-7.8428,-7.8428,-7.8428,-7.8428,-7.8428,-7.8428,-7.7303,-7.7452,-7.7474,-7.7653,-7.7703,-7.7828,-7.7879,-7.7947,-7.8007,-7.8156,-7.8246,-7.8281,-7.8347,-7.8456,-7.8552,-7.8565,-7.8604,-7.8641,-7.8649,-7.8468,-7.8444,-7.8421,-7.8388,-7.8649,-7.865,-7.8834,-7.8836,-7.8837]}]]